Date String (YYYY-MM-DD hh:mm:ss) UTC,Instrument flags,absolute air pressure of the measurement (hPa),sample flow rate (lpm),inlet stack bypass flow (lpm),air temperature of the measurement (°C),ambient temperature measured by the external sensor (°C),aerosol sample conditioner tube jacket temperature (°C),OPC LED temperature (°C),internal box temperature (°C),relative humidity of the measurement (%),span deviation,mass concentration of particles derived from Lorenz-Mie calculation of OPC scattering (μg/m³),mass concentration of particles derived from Lorenz-Mie calculation of OPC scattering (μg/m³),mass concentration of particles derived from Lorenz-Mie calculation of OPC scattering (μg/m³)
DateTimeUTC,F1_M11,P_M11,Q1_M11,Q2_M11,T1_M11,T2_M11,T3_M11,T4_M11,T5_M11,U1_M11,ZSPAN_M11,X2_M11,X0_M11,X1_M11
2024-03-26 09:00:00,SystemResetWarning,0819.9,5.00,000.00,018.7,018.2,000.0,027.3,020.5,14.2,0000.0,0008.75,0013.11,0008.53
2024-03-26 09:01:00,SystemResetWarning,0820.1,5.00,000.00,018.7,018.0,000.0,027.3,020.4,14.2,0000.0,0008.71,0012.62,0008.52
2024-03-26 09:02:00,SystemResetWarning,0819.7,5.00,000.00,018.6,017.9,000.0,027.3,020.3,14.3,0000.0,0008.71,0012.64,0008.52
2024-03-26 09:03:00,SystemResetWarning,0820.0,5.00,000.00,018.6,017.7,000.0,027.3,020.2,14.3,0000.0,0008.70,0012.61,0008.50
2024-03-26 09:04:00,SystemResetWarning,0819.9,5.00,000.00,018.5,017.6,000.0,027.2,020.2,14.3,0000.0,0008.73,0012.45,0008.50
2024-03-26 09:05:00,SystemResetWarning,0819.6,5.00,000.00,018.5,017.5,000.0,027.2,020.1,14.3,0000.0,0008.71,0011.78,0008.50
2024-03-26 09:06:00,SystemResetWarning,0819.5,5.00,000.00,018.4,017.5,000.0,027.2,020.0,14.4,0000.0,0008.73,0011.64,0008.53
2024-03-26 09:07:00,SystemResetWarning,0819.5,5.00,000.00,018.4,017.4,000.0,027.2,020.0,14.5,0000.0,0008.74,0011.22,0008.54
2024-03-26 09:08:00,SystemResetWarning,0819.9,5.01,000.00,018.4,017.6,000.0,027.2,020.2,14.5,0000.0,0008.75,0011.20,0008.55
2024-03-26 09:09:00,SystemResetWarning,0819.7,5.01,000.00,018.5,018.4,000.0,027.3,020.7,14.4,0000.0,0008.75,0010.95,0008.55
2024-03-26 09:10:00,SystemResetWarning,0820.0,5.00,000.00,018.8,019.3,000.0,027.4,021.2,14.2,0000.0,0008.75,0010.65,0008.56
2024-03-26 09:11:00,SystemResetWarning,0819.7,4.99,000.00,018.9,019.3,000.0,027.4,021.2,14.0,0000.0,0008.76,0010.65,0008.58
2024-03-26 09:12:00,SystemResetWarning,0819.6,4.99,000.00,018.9,019.0,000.0,027.4,021.0,14.0,0000.0,0008.78,0010.69,0008.58
2024-03-26 09:13:00,SystemResetWarning,0819.5,5.00,000.00,018.9,018.8,000.0,027.4,020.9,14.0,0000.0,0008.77,0010.64,0008.58
2024-03-26 09:14:00,SystemResetWarning,0819.5,5.00,000.00,018.9,018.5,000.0,027.3,020.7,14.0,0000.0,0008.78,0010.67,0008.58
2024-03-26 09:15:00,SystemResetWarning,0819.5,5.00,000.00,018.8,018.3,000.0,027.3,020.6,14.1,0000.0,0008.77,0010.62,0008.60
2024-03-26 09:16:00,SystemResetWarning,0819.5,5.00,000.00,018.8,018.2,000.0,027.3,020.5,14.1,0000.0,0008.76,0010.63,0008.59
2024-03-26 09:17:00,SystemResetWarning,0819.4,4.99,000.00,018.7,018.0,000.0,027.3,020.4,14.1,0000.0,0008.73,0010.62,0008.57
2024-03-26 09:18:00,SystemResetWarning,0819.5,5.00,000.00,018.7,017.9,000.0,027.3,020.3,14.1,0000.0,0008.72,0010.75,0008.55
2024-03-26 09:19:00,SystemResetWarning,0819.5,5.00,000.00,018.6,017.8,000.0,027.3,020.3,14.1,0000.0,0008.71,0010.76,0008.54
2024-03-26 09:20:00,SystemResetWarning,0819.4,5.01,000.00,018.6,017.7,000.0,027.3,020.3,14.2,0000.0,0008.68,0010.72,0008.53
2024-03-26 09:21:00,SystemResetWarning,0819.5,5.00,000.00,018.5,017.6,000.0,027.3,020.2,14.2,0000.0,0008.69,0010.72,0008.53
2024-03-26 09:22:00,SystemResetWarning,0819.5,5.00,000.00,018.5,017.5,000.0,027.3,020.2,14.2,0000.0,0008.71,0010.81,0008.53
2024-03-26 09:23:00,SystemResetWarning,0819.4,5.00,000.00,018.4,017.4,000.0,027.2,020.1,14.2,0000.0,0008.71,0010.81,0008.54
2024-03-26 09:24:00,SystemResetWarning,0819.4,5.01,000.00,018.4,017.4,000.0,027.2,020.1,14.2,0000.0,0008.69,0010.76,0008.54
2024-03-26 09:25:00,SystemResetWarning,0819.4,5.01,000.00,018.4,017.6,000.0,027.2,020.2,14.2,0000.0,0008.68,0010.68,0008.53
2024-03-26 09:26:00,SystemResetWarning,0819.4,5.02,000.00,018.6,018.5,000.0,027.4,020.8,14.1,0000.0,0008.70,0010.73,0008.52
2024-03-26 09:27:00,SystemResetWarning,0819.5,5.00,000.00,018.8,019.1,000.0,027.4,021.1,13.9,0000.0,0008.71,0010.75,0008.52
2024-03-26 09:28:00,SystemResetWarning,0819.4,5.00,000.00,018.9,019.0,000.0,027.3,021.0,13.8,0000.0,0008.73,0010.79,0008.52
2024-03-26 09:29:00,SystemResetWarning,0819.5,4.99,000.00,018.9,018.7,000.0,027.3,020.9,13.8,0000.0,0008.75,0011.04,0008.52
2024-03-26 09:30:00,SystemResetWarning,0819.4,5.01,000.00,018.8,018.5,000.0,027.3,020.7,13.7,0000.0,0008.78,0011.41,0008.52
2024-03-26 09:31:00,SystemResetWarning,0819.3,5.01,000.00,018.8,018.3,000.0,027.3,020.6,13.8,0000.0,0008.80,0011.73,0008.54
2024-03-26 09:32:00,SystemResetWarning,0819.4,5.01,000.00,018.8,018.2,000.0,027.3,020.5,13.8,0000.0,0008.82,0012.25,0008.54
2024-03-26 09:33:00,SystemResetWarning,0819.3,5.00,000.00,018.7,018.0,000.0,027.3,020.4,13.8,0000.0,0008.84,0012.44,0008.55
2024-03-26 09:34:00,SystemResetWarning,0819.5,4.99,000.00,018.7,017.9,000.0,027.3,020.4,13.8,0000.0,0008.83,0012.40,0008.54
2024-03-26 09:35:00,SystemResetWarning,0819.4,5.00,000.00,018.6,017.8,000.0,027.3,020.3,13.8,0000.0,0008.87,0012.53,0008.55
2024-03-26 09:36:00,SystemResetWarning,0819.4,5.00,000.00,018.6,017.7,000.0,027.3,020.3,13.8,0000.0,0008.91,0012.63,0008.58
2024-03-26 09:37:00,SystemResetWarning,0819.4,5.02,000.00,018.5,017.6,000.0,027.3,020.2,13.9,0000.0,0008.91,0012.80,0008.60
2024-03-26 09:38:00,SystemResetWarning,0819.3,4.99,000.00,018.5,017.6,000.0,027.2,020.2,13.9,0000.0,0008.91,0013.56,0008.62
2024-03-26 09:39:00,SystemResetWarning,0819.4,4.99,000.00,018.4,017.5,000.0,027.2,020.1,13.9,0000.0,0008.92,0013.73,0008.64
2024-03-26 09:40:00,SystemResetWarning,0819.4,4.99,000.00,018.4,017.4,000.0,027.2,020.1,13.9,0000.0,0008.95,0013.54,0008.67
2024-03-26 09:41:00,SystemResetWarning,0819.4,5.01,000.00,018.4,017.4,000.0,027.2,020.1,13.9,0000.0,0008.95,0013.07,0008.69
2024-03-26 09:42:00,SystemResetWarning,0819.4,5.01,000.00,018.4,017.9,000.0,027.3,020.4,13.9,0000.0,0008.97,0012.85,0008.71
2024-03-26 09:43:00,SystemResetWarning,0819.4,4.99,000.00,018.7,018.9,000.0,027.4,021.0,13.8,0000.0,0008.98,0012.60,0008.72
2024-03-26 09:44:00,SystemResetWarning,0819.4,5.00,000.00,018.8,019.1,000.0,027.3,021.1,13.6,0000.0,0008.97,0012.37,0008.72
2024-03-26 09:45:00,SystemResetWarning,0819.3,4.99,000.00,018.8,018.9,000.0,027.3,020.9,13.6,0000.0,0008.98,0012.40,0008.73
2024-03-26 09:46:00,SystemResetWarning,0819.4,4.99,000.00,018.8,018.7,000.0,027.3,020.8,13.6,0000.0,0008.99,0012.46,0008.74
2024-03-26 09:47:00,SystemResetWarning,0819.4,5.00,000.00,018.8,018.5,000.0,027.3,020.7,13.6,0000.0,0009.00,0012.42,0008.74
2024-03-26 09:48:00,SystemResetWarning,0819.3,5.01,000.00,018.8,018.3,000.0,027.3,020.6,13.6,0000.0,0009.00,0012.35,0008.75
2024-03-26 09:49:00,SystemResetWarning,0819.3,5.00,000.00,018.7,018.1,000.0,027.3,020.5,13.7,0000.0,0009.03,0011.79,0008.76
2024-03-26 09:50:00,SystemResetWarning,0819.3,5.00,000.00,018.7,018.0,000.0,027.3,020.4,13.7,0000.0,0009.07,0011.53,0008.78
2024-03-26 09:51:00,SystemResetWarning,0819.3,5.00,000.00,018.6,017.8,000.0,027.3,020.3,13.7,0000.0,0009.08,0011.55,0008.78
2024-03-26 09:52:00,SystemResetWarning,0819.3,5.00,000.00,018.6,017.7,000.0,027.3,020.3,13.8,0000.0,0009.08,0012.01,0008.78
2024-03-26 09:53:00,SystemResetWarning,0819.3,5.00,000.00,018.5,017.6,000.0,027.2,020.2,13.9,0000.0,0009.07,0012.15,0008.77
2024-03-26 09:54:00,SystemResetWarning,0819.3,5.00,000.00,018.5,017.6,000.0,027.2,020.2,13.9,0000.0,0009.06,0012.05,0008.77
2024-03-26 09:55:00,SystemResetWarning,0819.3,5.00,000.00,018.5,017.5,000.0,027.2,020.2,13.9,0000.0,0009.07,0012.15,0008.76
2024-03-26 09:56:00,SystemResetWarning,0819.3,5.00,000.00,018.4,017.5,000.0,027.2,020.1,13.9,0000.0,0009.08,0012.36,0008.74
2024-03-26 09:57:00,SystemResetWarning,0819.3,5.00,000.00,018.4,017.4,000.0,027.2,020.1,14.0,0000.0,0009.08,0012.49,0008.74
2024-03-26 09:58:00,SystemResetWarning,0819.3,5.00,000.00,018.4,017.4,000.0,027.2,020.1,14.0,0000.0,0009.08,0013.86,0008.75
2024-03-26 09:59:00,SystemResetWarning,0819.3,5.00,000.00,018.4,017.9,000.0,027.3,020.4,14.0,0000.0,0009.06,0014.43,0008.73
